Date String (YYYY-MM-DD hh:mm:ss) UTC,Instrument flags,Ambient pressure (hPa),Sample flow (lpm),Bypass flow (lpm),Sample temperature (°C),Ambient temperature (°C),ASC tube jacket temperature (°C),LED temperature (°C),Box temperature (°C),Sample RH (%),Span deviation,Mass concentration (μg/m³),Mass concentration (μg/m³),Mass concentration (μg/m³)
DateTimeUTC,F1_M11,P_M11,Q1_M11,Q2_M11,T1_M11,T2_M11,T3_M11,T4_M11,T5_M11,U1_M11,ZSPAN_M11,X0_M11,X2_M11,X1_M11
2022-05-16 19:00:00,,0823.2,5.00,0.00,29.3,26.2,00.0,38.1,30.9,15.6,0000.0,0017.49,0004.41,0002.68
2022-05-16 19:01:00,,0823.2,5.01,0.00,29.2,25.0,00.0,38.0,30.6,15.9,0000.0,0018.18,0004.35,0002.67
2022-05-16 19:02:00,,0823.2,5.00,0.00,29.1,25.5,00.0,38.0,30.6,15.5,0000.0,0017.67,0004.25,0002.65
2022-05-16 19:03:00,,0823.3,4.99,0.00,29.0,25.9,00.0,38.0,30.5,15.6,0000.0,0017.24,0004.17,0002.62
2022-05-16 19:04:00,,0823.2,5.01,0.00,29.0,26.3,00.0,38.0,30.6,15.3,0000.0,0015.80,0004.13,0002.60
2022-05-16 19:05:00,,0823.2,5.01,0.00,29.0,26.8,00.0,38.0,30.7,15.6,0000.0,0015.20,0004.08,0002.56
2022-05-16 19:06:00,,0823.1,5.00,0.00,29.1,27.1,00.0,38.0,30.9,15.6,0000.0,0015.00,0004.01,0002.53
2022-05-16 19:07:00,,0823.2,4.99,0.00,29.1,27.4,00.0,38.0,30.9,15.4,0000.0,0014.13,0003.97,0002.51
2022-05-16 19:08:00,,0823.2,5.01,0.00,29.1,27.7,00.0,38.0,31.0,15.4,0000.0,0013.61,0003.93,0002.49
2022-05-16 19:09:00,,0823.2,5.00,0.00,29.2,27.9,00.0,38.0,31.0,15.4,0000.0,0013.35,0003.95,0002.51
2022-05-16 19:10:00,,0823.2,5.00,0.00,29.2,28.1,00.0,38.1,31.1,15.4,0000.0,0014.09,0004.04,0002.54
2022-05-16 19:11:00,,0823.1,5.00,0.00,29.2,28.2,00.0,38.1,31.1,15.4,0000.0,0015.56,0004.09,0002.59
2022-05-16 19:12:00,,0823.1,5.00,0.00,29.3,28.3,00.0,38.1,31.2,15.5,0000.0,0014.89,0004.16,0002.62
2022-05-16 19:13:00,,0823.2,5.00,0.00,29.3,28.4,00.0,38.1,31.3,16.6,0000.0,0014.58,0004.17,0002.66
2022-05-16 19:14:00,,0823.1,5.00,0.00,29.3,27.1,00.0,38.1,31.0,16.3,0000.0,0014.24,0004.22,0002.69
2022-05-16 19:15:00,,0823.1,5.00,0.00,29.2,25.2,00.0,38.1,30.6,16.1,0000.0,0014.83,0004.24,0002.71
2022-05-16 19:16:00,,0823.1,5.00,0.00,29.1,25.3,00.0,38.1,30.6,15.7,0000.0,0015.50,0004.24,0002.73
2022-05-16 19:17:00,,0823.1,5.00,0.00,29.1,25.8,00.0,38.0,30.6,15.8,0000.0,0014.24,0004.27,0002.75
2022-05-16 19:18:00,,0823.1,5.01,0.00,29.0,26.2,00.0,38.0,30.6,16.0,0000.0,0014.40,0004.29,0002.78
2022-05-16 19:19:00,,0823.1,5.00,0.00,29.0,26.6,00.0,38.0,30.7,16.6,0000.0,0015.44,0004.33,0002.81
2022-05-16 19:20:00,,0823.0,4.99,0.00,29.1,27.0,00.0,38.0,30.9,15.6,0000.0,0015.52,0004.35,0002.83
2022-05-16 19:21:00,,0823.0,5.00,0.00,29.1,27.3,00.0,38.0,30.9,16.2,0000.0,0015.62,0004.36,0002.84
2022-05-16 19:22:00,,0823.0,5.00,0.00,29.1,27.6,00.0,38.0,31.0,15.9,0000.0,0014.31,0004.35,0002.85
2022-05-16 19:23:00,,0823.0,4.99,0.00,29.2,27.8,00.0,38.1,31.1,15.7,0000.0,0014.30,0004.35,0002.86
2022-05-16 19:24:00,,0823.0,4.99,0.00,29.2,28.0,00.0,38.1,31.1,15.2,0000.0,0015.33,0004.43,0002.87
2022-05-16 19:25:00,,0822.9,5.00,0.00,29.2,28.2,00.0,38.1,31.1,15.6,0000.0,0016.51,0004.51,0002.89
2022-05-16 19:26:00,,0822.9,5.01,0.00,29.3,28.3,00.0,38.1,31.2,15.2,0000.0,0017.43,0004.55,0002.94
2022-05-16 19:27:00,,0822.9,5.00,0.00,29.3,28.4,00.0,38.1,31.3,14.7,0000.0,0016.94,0004.61,0002.98
2022-05-16 19:28:00,,0822.9,5.00,0.00,29.4,27.8,00.0,38.2,31.2,14.7,0000.0,0017.26,0004.62,0003.00
2022-05-16 19:29:00,,0822.9,5.00,0.00,29.3,25.7,00.0,38.1,30.8,15.3,0000.0,0018.03,0004.67,0003.03
2022-05-16 19:30:00,,0822.9,4.99,0.00,29.1,25.0,00.0,38.1,30.6,15.4,0000.0,0017.79,0004.75,0003.04
2022-05-16 19:31:00,,0822.9,5.00,0.00,29.1,25.4,00.0,38.1,30.6,14.4,0000.0,0018.27,0004.84,0003.08
2022-05-16 19:32:00,,0822.9,4.99,0.00,29.0,25.9,00.0,38.0,30.6,14.7,0000.0,0019.08,0004.89,0003.09
2022-05-16 19:33:00,,0822.9,5.01,0.00,29.0,26.3,00.0,38.0,30.7,14.6,0000.0,0019.54,0004.88,0003.10
2022-05-16 19:34:00,,0822.9,5.01,0.00,29.0,26.7,00.0,38.0,30.8,14.4,0000.0,0019.65,0004.89,0003.10
2022-05-16 19:35:00,,0822.9,5.00,0.00,29.0,27.0,00.0,38.0,30.8,14.7,0000.0,0019.87,0004.91,0003.12
2022-05-16 19:36:00,,0822.9,4.99,0.00,29.1,27.4,00.0,38.0,30.9,14.7,0000.0,0020.11,0004.91,0003.13
2022-05-16 19:37:00,,0822.9,5.00,0.00,29.1,27.6,00.0,38.0,31.0,14.3,0000.0,0018.86,0004.94,0003.13
2022-05-16 19:38:00,,0822.9,5.01,0.00,29.1,27.8,00.0,38.1,31.0,14.4,0000.0,0019.18,0005.02,0003.12
2022-05-16 19:39:00,,0822.9,5.01,0.00,29.2,28.0,00.0,38.1,31.1,14.6,0000.0,0020.34,0005.04,0003.10
2022-05-16 19:40:00,,0823.0,4.99,0.00,29.2,28.1,00.0,38.1,31.1,15.0,0000.0,0020.40,0005.09,0003.06
2022-05-16 19:41:00,,0823.0,5.00,0.00,29.3,28.3,00.0,38.1,31.2,14.8,0000.0,0021.30,0005.10,0003.05
2022-05-16 19:42:00,,0823.0,4.99,0.00,29.3,28.4,00.0,38.1,31.2,15.0,0000.0,0021.07,0005.08,0003.05
2022-05-16 19:43:00,,0823.0,5.00,0.00,29.3,28.5,00.0,38.2,31.3,14.7,0000.0,0021.08,0005.04,0003.03
2022-05-16 19:44:00,,0823.1,5.00,0.00,29.4,27.8,00.0,38.2,31.2,14.7,0000.0,0020.45,0004.97,0003.03
2022-05-16 19:45:00,,0823.0,5.00,0.00,29.3,25.6,00.0,38.1,30.9,14.7,0000.0,0020.44,0004.98,0003.02
2022-05-16 19:46:00,,0823.0,5.01,0.00,29.2,24.8,00.0,38.1,30.6,14.7,0000.0,0019.86,0004.95,0003.02
2022-05-16 19:47:00,,0823.0,5.00,0.00,29.1,25.4,00.0,38.1,30.6,14.5,0000.0,0020.10,0004.91,0003.01
2022-05-16 19:48:00,,0823.0,4.98,0.00,29.0,25.8,00.0,38.1,30.6,14.0,0000.0,0021.28,0004.86,0003.00
2022-05-16 19:49:00,,0823.0,5.00,0.00,29.0,26.2,00.0,38.0,30.7,14.1,0000.0,0021.44,0004.79,0002.99
2022-05-16 19:50:00,,0823.0,5.01,0.00,29.0,26.6,00.0,38.0,30.8,14.4,0000.0,0020.32,0004.76,0003.00
2022-05-16 19:51:00,,0823.0,5.00,0.00,29.0,27.0,00.0,38.0,30.8,14.1,0000.0,0020.57,0004.74,0003.03
2022-05-16 19:52:00,,0823.0,5.00,0.00,29.1,27.3,00.0,38.0,30.9,14.1,0000.0,0019.84,0004.71,0003.05
2022-05-16 19:53:00,,0823.1,5.01,0.00,29.1,27.6,00.0,38.1,31.0,14.2,0000.0,0020.65,0004.69,0003.04
2022-05-16 19:54:00,,0823.1,5.00,0.00,29.1,27.8,00.0,38.1,31.0,14.0,0000.0,0021.02,0004.70,0003.03
2022-05-16 19:55:00,,0823.0,4.99,0.00,29.2,28.0,00.0,38.1,31.1,13.8,0000.0,0021.08,0004.67,0003.02
2022-05-16 19:56:00,,0823.0,4.98,0.00,29.2,28.1,00.0,38.1,31.1,14.2,0000.0,0021.44,0004.66,0003.01
2022-05-16 19:57:00,,0823.0,5.00,0.00,29.3,28.2,00.0,38.1,31.2,14.1,0000.0,0022.38,0004.72,0002.98
2022-05-16 19:58:00,,0823.1,5.00,0.00,29.3,28.3,00.0,38.2,31.2,14.3,0000.0,0022.06,0004.73,0002.99
2022-05-16 19:59:00,,0823.0,4.99,0.00,29.3,28.4,00.0,38.2,31.3,14.1,0000.0,0020.67,0004.73,0002.97
